Date_and_time,latitude,longitude,wind_speed,RelWindDirFrom,WindDirFrom,air_pressure,air_temperature,relative_humidity,Temp,platform_speed_wrt_ground,air_pressure_at_mean_sea_level,platform_orientation
2018-05-16 23:50,50.6304416666667,-96.98076,12.9,16.0,10,992.22,10.0,62,9.69,0.0,1019.18,38.0
2018-05-17 00:00,50.63044,-96.9807583333333,12.4,16.1,6,992.38,9.9,63,9.68,0.0,1019.34,360.0
2018-05-17 00:10,50.6304366666667,-96.980755,11.9,14.7,6,992.52,10.1,61,9.68,0.0,1019.48,360.0
2018-05-17 00:20,50.63044,-96.98077,12.6,15.2,3,992.61,10.1,62,9.70,0.0,1019.58,360.0
2018-05-17 00:30,50.6304366666667,-96.9807766666667,12.9,15.8,4,992.70,10.4,60,9.71,0.0,1019.66,360.0
2018-05-17 00:40,50.6304383333333,-96.9807733333333,12.5,15.6,8,992.61,10.3,61,9.71,0.0,1019.57,360.0
2018-05-17 00:50,50.6304366666667,-96.98077,14.3,16.9,7,992.65,10.0,61,9.71,0.0,1019.64,360.0
2018-05-17 01:00,50.630435,-96.9807683333333,13.1,16.2,5,992.75,9.9,62,9.69,0.0,1019.76,291.5
2018-05-17 01:10,50.6304366666667,-96.9807683333333,12.5,14.4,7,992.71,9.7,64,9.66,0.0,1019.74,291.5
2018-05-17 01:20,50.6304366666667,-96.9807666666667,13.7,16.6,7,992.73,9.6,62,9.62,0.0,1019.76,291.5
2018-05-17 01:30,50.6304566666667,-96.980765,14.2,18.1,6,992.94,9.7,62,9.61,0.0,1019.96,291.5
2018-05-17 01:40,50.6304316666667,-96.9807583333333,15.2,18.5,7,992.97,9.5,63,9.63,0.0,1020.00,291.5
2018-05-17 01:50,50.63043,-96.98075,14.1,16.8,11,992.85,9.1,65,9.63,0.0,1019.90,291.5
2018-05-17 02:00,50.6304316666667,-96.98076,14.4,17.6,10,992.94,8.7,68,9.64,0.0,1020.01,228.3
2018-05-17 02:10,50.6304366666667,-96.9807583333333,13.4,18.1,9,993.09,8.4,69,9.64,0.0,1020.18,228.3
2018-05-17 02:20,50.6304383333333,-96.9807566666667,11.8,13.7,12,993.13,8.3,71,9.64,0.0,1020.20,228.3
2018-05-17 02:30,50.6304416666667,-96.9807616666667,11.3,13.4,15,993.10,8.0,75,9.64,0.0,1020.19,228.3
2018-05-17 02:40,50.630445,-96.9807666666667,10.9,12.9,15,993.25,7.8,77,9.64,0.0,1020.37,228.3
2018-05-17 02:50,50.630435,-96.9807633333333,10.4,12.2,16,993.32,7.5,82,9.64,0.0,1020.46,228.3
2018-05-17 03:00,50.63042,-96.9807566666667,11.2,13.8,15,993.40,7.4,81,9.64,0.0,1020.56,360.0
2018-05-17 03:10,50.6304316666667,-96.9807683333333,11.1,12.9,14,993.53,7.4,83,9.64,0.0,1020.70,360.0
2018-05-17 03:20,50.630435,-96.9807616666667,11.1,13.2,14,993.65,7.4,84,9.63,0.0,1020.82,360.0
2018-05-17 03:30,50.6304366666667,-96.9807583333333,11.4,13.9,15,993.63,7.4,83,9.62,0.0,1020.80,360.0
2018-05-17 03:40,50.6304366666667,-96.98076,11.2,13.6,14,993.68,7.2,86,9.61,0.0,1020.89,360.0
2018-05-17 03:50,50.6304383333333,-96.9807616666667,11.1,13.1,17,993.73,7.1,88,9.60,0.0,1020.96,360.0
2018-05-17 04:00,50.63044,-96.9807616666667,11.4,13.4,16,993.77,7.0,90,9.59,0.0,1021.02,12.6
2018-05-17 04:10,50.6304416666667,-96.9807616666667,12.5,15.4,10,993.97,7.0,87,9.58,0.0,1021.23,12.6
2018-05-17 04:20,50.6304433333333,-96.9807616666667,12.3,14.8,11,993.98,7.1,84,9.57,0.0,1021.25,12.6
2018-05-17 04:30,50.630455,-96.980755,12.4,14.5,14,993.89,7.1,84,9.56,0.0,1021.17,12.6
2018-05-17 04:40,50.6304633333333,-96.9807366666667,11.8,13.3,16,993.85,7.0,87,9.54,0.0,1021.14,12.6
2018-05-17 04:50,50.630425,-96.9807616666667,11.4,13.7,16,993.91,7.0,88,9.54,0.0,1021.22,12.6
2018-05-17 05:00,50.6304366666667,-96.980765,12.4,14.8,14,993.93,6.9,88,9.53,0.0,1021.24,311.7
2018-05-17 05:10,50.63044,-96.9807683333333,13.4,15.7,15,993.92,6.8,88,9.53,0.0,1021.23,311.7
2018-05-17 05:20,50.63044,-96.9807616666667,13.0,15.3,21,993.87,6.6,91,9.53,0.0,1021.19,311.7
2018-05-17 05:30,50.63044,-96.98076,12.2,13.9,17,993.95,6.4,93,9.52,0.0,1021.30,311.7
2018-05-17 05:40,50.6304316666667,-96.9807733333333,11.4,13.7,12,994.14,6.6,91,9.52,0.0,1021.49,311.7
2018-05-17 05:50,50.6304383333333,-96.980765,11.8,14.2,13,994.24,6.7,89,9.51,0.0,1021.59,311.7
2018-05-17 06:00,50.6304533333333,-96.9807616666667,12.0,13.6,18,994.17,6.6,92,9.49,0.0,1021.52,18.9
2018-05-17 06:10,50.6304516666667,-96.9807883333333,12.1,13.9,15,994.27,6.4,94,9.49,0.0,1021.63,18.9
2018-05-17 06:20,50.6304416666667,-96.98077,11.7,14.0,15,994.40,6.5,91,9.48,0.0,1021.76,18.9
2018-05-17 06:30,50.63044,-96.9807666666667,11.3,13.6,19,994.43,6.4,93,9.47,0.0,1021.80,18.9
2018-05-17 06:40,50.63044,-96.9807666666667,11.5,13.4,19,994.39,6.3,94,9.47,0.0,1021.77,18.9
2018-05-17 06:50,50.63044,-96.980765,11.5,13.6,22,994.32,6.2,94,9.47,0.0,1021.71,18.9
2018-05-17 07:00,50.6304416666667,-96.980765,11.1,13.1,24,994.41,6.1,96,9.47,0.0,1021.81,270.0
2018-05-17 07:10,50.6304416666667,-96.980765,10.8,12.4,29,994.40,6.1,96,9.45,0.0,1021.81,270.0
2018-05-17 07:20,50.630435,-96.9807566666667,11.0,13.2,26,994.56,6.1,98,9.45,0.0,1021.98,270.0
2018-05-17 07:30,50.6304366666667,-96.9807633333333,11.0,12.8,30,994.50,6.0,98,9.45,0.0,1021.91,270.0
2018-05-17 07:40,50.630435,-96.9807633333333,10.6,12.1,38,994.46,5.9,99,9.44,0.0,1021.87,270.0
2018-05-17 07:50,50.630435,-96.9807633333333,9.8,11.3,38,994.55,5.9,99,9.45,0.0,1021.97,270.0
2018-05-17 08:00,50.6304383333333,-96.9807683333333,9.3,10.6,44,994.58,5.9,99,9.45,0.0,1022.01,360.0
2018-05-17 08:10,50.630435,-96.98077,9.1,10.4,38,994.66,5.9,99,9.44,0.0,1022.09,360.0
2018-05-17 08:20,50.6304333333333,-96.9807666666667,8.6,10.1,49,994.47,5.9,99,9.43,0.0,1021.90,360.0
2018-05-17 08:30,50.630435,-96.9807633333333,7.9,9.7,60,994.42,5.8,99,9.43,0.0,1021.85,360.0
2018-05-17 08:40,50.630435,-96.9807616666667,7.1,8.4,56,994.64,6.0,98,9.41,0.0,1022.08,360.0
2018-05-17 08:50,50.6304366666667,-96.9807583333333,7.0,8.3,50,994.77,6.0,99,9.41,0.0,1022.21,360.0
2018-05-17 09:00,50.6304366666667,-96.9807583333333,7.0,8.0,40,994.97,6.0,99,9.40,0.0,1022.43,161.1
2018-05-17 09:10,50.6304366666667,-96.9807583333333,6.5,7.7,56,994.89,6.0,99,9.40,0.0,1022.34,161.1
2018-05-17 09:20,50.6304383333333,-96.9807583333333,6.5,7.2,64,994.88,6.0,99,9.39,0.0,1022.33,161.1
2018-05-17 09:30,50.63044,-96.9807566666667,6.4,7.5,75,994.83,6.1,99,9.39,0.0,1022.28,161.1
2018-05-17 09:40,50.63044,-96.9807566666667,6.4,7.5,58,995.15,6.3,96,9.38,0.0,1022.60,161.1
2018-05-17 09:50,50.63044,-96.9807566666667,6.1,7.2,63,995.19,6.3,98,9.38,0.0,1022.64,161.1
2018-05-17 10:00,50.6304416666667,-96.980755,5.9,7.1,62,995.24,6.1,99,9.38,0.0,1022.70,90.0
2018-05-17 10:10,50.63041,-96.9807316666667,5.9,7.0,53,995.31,6.0,99,9.38,0.0,1022.77,90.0
2018-05-17 10:20,50.6304283333333,-96.98074,5.8,7.1,57,995.33,6.1,99,9.38,0.0,1022.80,90.0
2018-05-17 10:30,50.6304333333333,-96.9807433333333,6.6,7.6,64,995.23,6.1,99,9.38,0.0,1022.69,90.0
2018-05-17 10:40,50.6304366666667,-96.9807466666667,6.9,7.8,62,995.18,6.1,99,9.38,0.0,1022.64,90.0
2018-05-17 10:50,50.6304366666667,-96.9807483333333,6.7,7.7,59,995.32,6.1,98,9.38,0.0,1022.77,90.0
2018-05-17 11:00,50.6304366666667,-96.98075,7.2,8.2,56,995.39,6.2,98,9.38,0.0,1022.85,125.3
2018-05-17 11:10,50.6304366666667,-96.9807516666667,9.4,11.0,64,995.14,6.2,98,9.39,0.0,1022.59,125.3
2018-05-17 11:20,50.630435,-96.98075,10.0,11.1,64,995.04,6.2,97,9.39,0.0,1022.48,125.3
2018-05-17 11:30,50.630435,-96.9807516666667,8.9,10.3,61,995.14,6.2,98,9.40,0.0,1022.57,125.3
2018-05-17 11:40,50.630435,-96.9807516666667,8.1,9.3,53,995.45,6.2,98,9.40,0.0,1022.89,125.3
2018-05-17 11:50,50.6304333333333,-96.98075,6.7,7.6,45,995.75,6.2,99,9.40,0.0,1023.21,125.3
2018-05-17 12:00,50.6304333333333,-96.98075,7.6,8.6,49,995.74,6.2,99,9.39,0.0,1023.21,131.7
2018-05-17 12:10,50.6304333333333,-96.9807566666667,7.4,8.9,41,995.99,6.2,99,9.38,0.0,1023.45,131.7
2018-05-17 12:20,50.630435,-96.9807583333333,9.3,11.1,47,995.91,6.3,99,9.38,0.0,1023.37,131.7
2018-05-17 12:30,50.6304333333333,-96.9807616666667,9.1,10.2,51,996.03,6.2,99,9.38,0.0,1023.49,131.7
2018-05-17 12:40,50.63044,-96.9807683333333,8.7,10.4,45,996.12,6.2,99,9.38,0.0,1023.59,131.7
2018-05-17 12:50,50.6304366666667,-96.98077,10.1,11.4,41,996.04,6.1,99,9.39,0.0,1023.51,131.7
2018-05-17 13:00,50.6304316666667,-96.98077,9.0,10.5,46,996.14,6.1,99,9.40,0.0,1023.61,221.3
2018-05-17 13:10,50.6304316666667,-96.980765,9.9,11.7,39,996.16,6.1,99,9.41,0.0,1023.63,221.3
2018-05-17 13:20,50.63044,-96.9807633333333,9.6,11.8,41,996.24,6.3,99,9.42,0.0,1023.71,221.3
2018-05-17 13:30,50.6304366666667,-96.980765,9.5,10.7,42,996.30,6.3,99,9.42,0.0,1023.77,221.3
2018-05-17 13:40,50.630435,-96.9807633333333,9.1,10.5,49,996.18,6.3,99,9.42,0.0,1023.64,221.3
2018-05-17 13:50,50.6304366666667,-96.9807683333333,8.7,9.8,57,996.04,6.4,99,9.43,0.0,1023.50,221.3
2018-05-17 14:00,50.6304366666667,-96.9807666666667,8.5,9.9,44,996.00,6.3,99,9.43,0.0,1023.46,270.0
2018-05-17 14:10,50.630435,-96.9807666666667,9.8,11.7,39,995.90,6.2,99,9.43,0.0,1023.36,270.0
2018-05-17 14:20,50.630435,-96.9807666666667,11.6,13.1,43,995.80,6.4,99,9.42,0.0,1023.24,270.0
2018-05-17 14:30,50.630435,-96.980765,12.0,13.7,52,995.62,6.6,98,9.43,0.0,1023.05,270.0
2018-05-17 14:40,50.6304333333333,-96.9807633333333,11.3,13.2,52,995.49,6.5,99,9.43,0.0,1022.93,270.0
2018-05-17 14:50,50.6304316666667,-96.98076,11.7,13.7,58,995.41,6.4,99,9.43,0.0,1022.85,270.0
2018-05-17 15:00,50.630435,-96.9807433333333,10.8,12.2,53,995.33,6.3,99,9.42,0.0,1022.77,48.3
2018-05-17 15:10,50.6304383333333,-96.98075,9.8,12.0,37,995.48,6.3,99,9.41,0.0,1022.92,48.3
2018-05-17 15:20,50.6304366666667,-96.9807483333333,12.3,14.5,40,995.35,6.5,99,9.40,0.0,1022.78,48.3
2018-05-17 15:30,50.6304366666667,-96.98075,12.2,14.5,37,995.42,6.6,99,9.39,0.0,1022.84,48.3
2018-05-17 15:40,50.63041,-96.98075,11.1,13.1,43,995.74,6.8,98,9.37,0.0,1023.15,48.3
2018-05-17 15:50,50.630435,-96.980755,11.6,13.1,39,995.73,6.8,99,9.35,0.0,1023.15,48.3
2018-05-17 16:00,50.63044,-96.980755,11.6,14.1,32,995.78,6.7,99,9.34,0.0,1023.21,14.5
2018-05-17 16:10,50.630435,-96.9807766666667,13.4,14.8,34,995.51,6.7,99,9.33,0.0,1022.92,14.5
2018-05-17 16:20,50.63044,-96.98076,12.1,14.1,44,995.72,6.8,99,9.33,0.0,1023.13,14.5
2018-05-17 16:30,50.6304366666667,-96.9807616666667,12.2,14.1,56,995.71,6.9,98,9.31,0.0,1023.12,14.5
2018-05-17 16:40,50.6304383333333,-96.9807616666667,13.2,15.8,57,995.63,7.2,94,9.30,0.0,1023.02,14.5
2018-05-17 16:50,50.6304383333333,-96.9807616666667,14.8,17.2,59,995.52,7.4,91,9.29,0.0,1022.90,14.5
2018-05-17 17:00,50.6304383333333,-96.9807616666667,13.9,16.4,61,995.61,7.4,91,9.29,0.0,1023.00,12.6
2018-05-17 17:10,50.6304366666667,-96.9807616666667,12.5,14.9,61,995.85,7.6,91,9.29,0.0,1023.22,12.6
2018-05-17 17:20,50.6304366666667,-96.9807616666667,10.0,12.2,55,995.99,7.3,94,9.29,0.0,1023.37,12.6
2018-05-17 17:30,50.630435,-96.9807633333333,10.0,11.7,55,995.97,7.2,95,9.30,0.0,1023.36,12.6
2018-05-17 17:40,50.630435,-96.9807633333333,9.1,10.6,55,995.94,7.2,95,9.30,0.0,1023.32,12.6
2018-05-17 17:50,50.6304333333333,-96.980765,8.9,10.2,66,995.93,7.2,94,9.32,0.0,1023.32,12.6
2018-05-17 18:00,50.6304166666667,-96.98076,9.2,10.4,68,995.91,7.3,94,9.32,0.0,1023.29,194.5
2018-05-17 18:10,50.63042,-96.9807666666667,8.3,10.1,60,995.90,7.4,94,9.33,0.0,1023.28,194.5
2018-05-17 18:20,50.6304216666667,-96.98077,8.8,9.8,46,995.76,7.2,97,9.34,0.0,1023.13,194.5
2018-05-17 18:30,50.6304266666667,-96.9807716666667,9.8,11.3,44,995.81,7.4,95,9.37,0.0,1023.16,194.5
2018-05-17 18:40,50.6304283333333,-96.9807716666667,10.5,11.8,41,995.67,7.6,94,9.37,0.0,1022.99,194.5
2018-05-17 18:50,50.63043,-96.98077,9.0,11.7,27,995.84,7.6,96,9.38,0.0,1023.16,194.5
2018-05-17 19:00,50.63043,-96.9807683333333,11.3,13.5,13,995.69,7.8,95,9.38,0.0,1023.00,360.0
2018-05-17 19:10,50.6304433333333,-96.9807583333333,11.0,12.6,11,995.59,7.7,94,9.37,0.0,1022.91,360.0
2018-05-17 19:20,50.6304383333333,-96.98076,10.7,12.3,11,995.59,7.8,93,9.36,0.0,1022.92,360.0
2018-05-17 19:30,50.6304333333333,-96.9807533333333,9.9,11.7,10,995.65,7.9,94,9.36,0.0,1022.97,360.0
2018-05-17 19:40,50.6304333333333,-96.9807533333333,10.6,12.1,19,995.45,7.8,97,9.35,0.0,1022.77,360.0
2018-05-17 19:50,50.6304333333333,-96.980755,11.9,13.2,18,995.20,7.6,99,9.33,0.0,1022.52,360.0
2018-05-17 20:00,50.6304333333333,-96.9807566666667,11.2,12.9,21,995.19,7.5,97,9.31,0.0,1022.51,360.0
2018-05-17 20:10,50.6304333333333,-96.9807583333333,10.4,12.3,18,995.36,7.5,96,9.31,0.0,1022.70,360.0
2018-05-17 20:20,50.6304333333333,-96.9807583333333,10.6,12.5,18,995.39,7.5,95,9.32,0.0,1022.72,360.0
2018-05-17 20:30,50.630435,-96.98076,12.1,13.7,33,995.16,7.4,91,9.32,0.0,1022.47,360.0
2018-05-17 20:40,50.630435,-96.98076,13.6,16.1,38,994.95,7.6,86,9.31,0.0,1022.24,360.0
2018-05-17 20:50,50.6304366666667,-96.98076,12.3,14.1,26,994.76,7.1,94,9.29,0.0,1022.07,360.0
2018-05-17 21:00,50.6304366666667,-96.98076,13.0,14.8,38,994.67,7.0,92,9.29,0.0,1021.98,360.0
2018-05-17 21:10,50.63044,-96.9807683333333,13.8,15.9,40,994.47,7.2,91,9.29,0.0,1021.76,360.0
2018-05-17 21:20,50.630445,-96.9807666666667,13.2,14.9,37,994.55,7.2,91,9.29,0.0,1021.84,360.0
2018-05-17 21:30,50.63043,-96.980765,14.1,16.8,44,994.54,7.2,91,9.29,0.0,1021.83,360.0
2018-05-17 21:40,50.630435,-96.98076,14.4,16.5,50,994.50,7.3,91,9.29,0.0,1021.80,360.0
2018-05-17 21:50,50.6304366666667,-96.9807566666667,14.7,16.8,41,994.30,7.1,95,9.30,0.0,1021.61,360.0
2018-05-17 22:00,50.630435,-96.9807533333333,16.1,18.4,40,994.13,7.1,96,9.29,0.0,1021.43,36.6
2018-05-17 22:10,50.6304366666667,-96.980755,16.9,19.2,38,993.86,7.1,98,9.28,0.0,1021.16,36.6
2018-05-17 22:20,50.6304383333333,-96.9807566666667,18.6,21.0,40,993.54,7.0,98,9.29,0.0,1020.83,36.6
2018-05-17 22:30,50.6304366666667,-96.9807566666667,19.4,22.0,44,993.40,7.5,95,9.30,0.0,1020.66,36.6
2018-05-17 22:40,50.6304383333333,-96.9807566666667,18.5,21.3,45,993.42,7.6,93,9.30,0.0,1020.70,36.6
2018-05-17 22:50,50.6304383333333,-96.9807583333333,15.5,18.5,40,993.60,7.4,96,9.29,0.0,1020.90,36.6
2018-05-17 23:00,50.6304366666667,-96.980775,16.2,18.8,44,993.44,7.3,95,9.30,0.0,1020.73,299.2
2018-05-17 23:10,50.6304466666667,-96.9807866666667,14.9,17.7,43,993.57,7.4,93,9.30,0.0,1020.86,299.2
2018-05-17 23:20,50.63044,-96.9807716666667,13.5,15.5,42,993.85,7.5,92,9.30,0.0,1021.14,299.2
2018-05-17 23:30,50.6304416666667,-96.98077,13.8,15.9,38,993.60,7.4,93,9.31,0.0,1020.88,299.2
